Location: The Stocker AstroScience Center
(25.7579°N, 80.3725°W)
Time: 03:51:39
(UTC-04:00)

ISS - All Passes

Search period start: 24 April 2014 00:00
Search period end: 04 May 2014 00:00
Orbit: 413 x 418 km, 51.6° (Epoch: 24 April)

Date Brightness Start Highest point End Pass type
(mag) Time Alt. Az. Time Alt. Az. Time Alt. Az.
24 Apr - 13:18:48 10° WSW 13:21:57 42° NW 13:25:08 10° NNE daylight
24 Apr - 21:30:15 10° NNW 21:33:31 50° NE 21:36:46 10° SE visible
25 Apr - 12:29:51 10° SW 12:33:09 84° SE 12:36:28 10° NE daylight
25 Apr - 20:41:49 10° NNW 20:44:37 24° NE 20:47:25 10° E visible
25 Apr - 22:18:55 10° W 22:21:09 17° SW 22:23:22 10° SSW visible
26 Apr - 11:41:16 10° SSW 11:44:19 35° SE 11:47:23 10° ENE daylight
26 Apr - 13:19:23 10° WNW 13:21:05 13° NW 13:22:48 10° N daylight
26 Apr - 19:53:48 10° N 19:55:33 14° NE 19:57:18 10° ENE daylight
26 Apr - 21:29:15 10° WNW 21:32:19 35° SW 21:35:24 10° SSE visible
27 Apr - 10:53:15 10° SSE 10:55:27 17° SE 10:57:39 10° E daylight
27 Apr - 12:29:12 10° W 12:31:58 24° NW 12:34:44 10° NNE daylight
27 Apr - 20:40:02 10° NW 20:43:22 84° SW 20:46:41 10° SE visible
28 Apr - 11:39:36 10° SW 11:42:49 50° NW 11:46:03 10° NNE daylight
28 Apr - 19:51:04 10° NNW 19:54:15 42° NE 19:57:25 10° ESE daylight
29 Apr - 10:50:23 10° SSW 10:53:40 69° SE 10:56:57 10° NE daylight
29 Apr - 19:02:21 10° N 19:04:58 21° NE 19:07:34 10° E daylight
29 Apr - 20:39:01 10° WNW 20:41:31 20° SW 20:44:00 10° S visible
30 Apr - 10:01:34 10° S 10:04:29 29° SE 10:07:24 10° ENE daylight
30 Apr - 11:39:07 10° W 11:41:10 15° NW 11:43:13 10° N daylight
30 Apr - 18:14:17 10° NNE 18:15:31 12° NE 18:16:44 10° ENE daylight
30 Apr - 19:49:09 10° NW 19:52:19 43° SW 19:55:29 10° SSE daylight
01 May - 09:13:29 10° SSE 09:15:15 14° SE 09:17:02 10° E daylight
01 May - 10:48:46 10° WSW 10:51:41 28° NW 10:54:37 10° NNE daylight
01 May - 18:59:40 10° NW 19:02:59 78° NE 19:06:17 10° SE daylight
02 May - 09:58:56 10° SW 10:02:12 63° NW 10:05:29 10° NE daylight
02 May - 18:10:26 10° NNW 18:13:29 34° NE 18:16:31 10° ESE daylight
02 May - 19:48:39 10° WSW 19:49:51 12° SW 19:51:02 10° SW daylight
03 May - 09:09:28 10° SSW 09:12:42 53° SE 09:15:56 10° NE daylight
03 May - 17:21:30 10° N 17:23:49 18° NE 17:26:07 10° E daylight
03 May - 18:57:40 10° WNW 19:00:25 24° SW 19:03:09 10° S daylight
